[[{"header":{"parameterUnit":"m.s-1","parameterCategory":1,"la1":30.2991,"la2":30.254,"lo1":-89.0895,"lo2":-89.0444,"dy":0.0017,"dx":0.0017,"nx":28,"ny":28,"refTime":"2024-12-25T09:00:00:Z","depth":0,"parameterNumber":2,"parameterNumberName":"U-component_of_WINDS"},"data":[0,0,0,0,0,0,0,0,0,0,0,0,0,0,0,0,0,0,0,0,0,0,0,0,0,0,0,0,0,0,0,0,0,0,0,0,0,0,0,0,0,0,0,0,0,0,0,0,0,0,0,0,0,0,0,0,0,0,-5.706,-5.7061,0,-5.7157,-5.7159,-5.716,-5.7128,-5.7126,-5.7124,-5.7122,-5.7222,-5.7226,-5.7231,0,0,0,0,0,0,0,0,0,0,0,0,0,-5.6848,-5.6852,-5.706,-5.7061,-5.7063,-5.7157,-5.7159,-5.716,-5.7128,-5.7126,-5.7123,-5.7121,-5.722,-5.7226,-5.7231,0,0,0,0,0,0,0,0,0,0,0,0,0,-5.6942,-5.6854,-5.706,-5.7058,-5.7059,-5.7157,-5.7159,-5.716,-5.7129,-5.7126,-5.7123,-5.712,-5.7218,-5.7225,-5.7232,-5.7337,0,0,-5.7253,-5.7256,0,0,0,0,0,0,0,0,-5.6937,-5.695,-5.7057,-5.7058,-5.706,-5.7127,-5.7121,-5.722,-5.713,-5.7102,-5.7122,-5.7118,-5.7193,-5.7202,-5.7227,-5.7342,-5.7346,-5.7254,-5.7258,-5.7261,-5.7263,0,0,0,0,0,0,0,-5.6931,-5.6946,-5.7099,-5.7059,-5.706,-5.7053,-5.7063,-5.7139,-5.7164,-5.7104,-5.7102,-5.7114,-5.7193,-5.722,-5.7229,-5.7348,-5.7253,-5.7259,-5.7264,-5.7266,-5.7556,-5.756,0,0,0,0,0,0,-5.6923,-5.6941,-5.7095,-5.7101,-5.6989,-5.7059,-5.707,-5.7109,-5.7163,-5.7168,-5.7117,-5.7113,-5.721,-5.7221,-5.7232,-5.7359,-5.7261,-5.7267,-5.7271,-5.7553,-5.7557,-5.7561,0,0,0,0,0,0,-5.6919,-5.6937,-5.7092,-5.7021,-5.704,-5.7066,-5.711,-5.7112,-5.7139,-5.7173,-5.7177,-5.714,-5.7208,-5.7223,-5.7312,-5.7362,-5.727,-5.7277,-5.7549,-5.7554,-5.7559,-5.7615,0,0,0,0,0,0,-5.6913,-5.6936,-5.6976,-5.7022,-5.7044,-5.7169,-5.7113,-5.7117,-5.7152,-5.7147,-5.7195,-5.72,-5.7207,-5.7302,-5.7319,-5.737,-5.7282,-5.7544,-5.7551,-5.7557,-5.7608,-5.7621,-5.7632,0,0,0,0,0,-5.6906,-5.6987,-5.6978,-5.6997,-5.7094,-5.7172,-5.7184,-5.7189,-5.7156,-5.7196,-5.7218,-5.7199,-5.7355,-5.7311,-5.733,-5.7384,-5.7541,-5.7549,-5.7557,-5.7603,-5.7619,-5.7632,0,0,0,0,0,0,-5.6945,-5.6993,-5.6983,-5.7082,-5.7123,-5.7166,-5.7217,-5.7206,-5.7257,-5.725,-5.7255,-5.7266,-5.7358,-5.7381,-5.7331,-5.749,-5.7443,-5.7455,-5.7471,-5.7487,-5.7498,-5.749,-5.7288,0,0,0,0,0,-5.6966,-5.7025,-5.7064,-5.7147,-5.7169,-5.719,-5.7224,-5.7225,-5.7267,-5.7284,-5.7312,-5.7355,-5.7414,-5.7452,-5.7508,-5.7613,-5.7623,-5.766,-5.7672,-5.7681,-5.7691,-5.7749,-5.7765,-5.7587,-5.7587,-5.7587,0,0,-5.7008,-5.7042,-5.7079,-5.7156,-5.7188,-5.725,-5.7204,-5.7271,-5.7317,-5.7295,-5.738,-5.7403,-5.7451,-5.7549,-5.7593,-5.757,-5.7743,-5.7692,-5.7699,-5.7703,-5.7759,-5.7776,-5.7791,-5.7593,-5.7592,-5.7591,0,0,-5.7116,-5.7148,-5.7221,-5.7255,-5.7304,-5.7319,-5.7336,-5.7382,-5.7396,-5.7483,-5.7468,-5.7523,-5.7624,-5.7659,-5.769,-5.7815,-5.78,-5.7834,-5.7895,-5.7951,-5.7965,-5.7978,-5.8022,-5.8038,-5.7844,-5.7844,-5.7844,0,-5.7162,-5.7254,-5.726,-5.7329,-5.7364,-5.7348,-5.7423,-5.7455,-5.7521,-5.7545,-5.7519,-5.7647,-5.7678,-5.7784,-5.7815,-5.7841,-5.7861,-5.7826,-5.7963,-5.7975,-5.7987,-5.8029,-5.8046,-5.7848,-5.7847,-5.7847,-5.7847,0,-5.7308,-5.7373,-5.7426,-5.749,-5.7531,-5.7603,-5.762,-5.7662,-5.7661,-5.7678,-5.7767,-5.7804,-5.7868,-5.7894,-5.7893,-5.8,-5.7985,-5.7961,-5.7913,-5.8008,-5.8047,-5.8063,-5.7853,-5.7852,-5.7851,-5.785,0,0,-5.744,-5.7509,-5.7528,-5.7558,-5.7613,-5.7663,-5.7735,-5.7798,-5.7833,-5.788,-5.794,-5.8027,-5.8006,-5.8042,-5.8045,-5.8095,-5.8192,-5.8065,-5.8067,-5.8086,-5.8313,-5.8328,-5.8347,-5.8183,-5.8187,-5.8189,-5.8308,0,-5.7552,-5.7677,-5.7686,-5.7799,-5.7859,-5.7847,-5.791,-5.7951,-5.797,-5.8024,-5.8046,-5.8107,-5.8075,-5.8097,-5.8146,-5.8169,-5.8237,-5.8161,-5.8239,-5.8241,-5.8224,-5.8368,-5.8384,-5.8494,-5.8324,-5.8326,-5.8328,0,-5.7697,-5.7749,-5.7868,-5.7917,-5.7942,-5.7998,-5.8057,-5.8109,-5.8157,-5.8167,-5.8209,-5.8206,-5.828,-5.8233,-5.8336,-5.8284,-5.8317,-5.8334,-5.8339,-5.8344,-5.8288,-5.8375,-5.853,-5.8545,-5.8353,-5.8351,-5.8349,0,-5.778,-5.788,-5.7964,-5.799,-5.8049,-5.8089,-5.8115,-5.816,-5.8198,-5.825,-5.8275,-5.8335,-5.8368,-5.8415,-5.843,-5.8393,-5.8533,-5.8485,-5.8543,-5.8543,-5.857,-5.8567,-5.873,-5.8595,-5.8595,-5.8595,-5.8594,0,-5.7902,-5.7975,-5.8002,-5.8054,-5.8136,-5.8148,-5.8229,-5.8253,-5.8294,-5.835,-5.8345,-5.8398,-5.8415,-5.8472,-5.8484,-5.8568,-5.8583,-5.8593,-5.8595,-5.8592,-5.8591,-5.8612,-5.8604,-5.8599,-5.8598,-5.8597,-5.8597,0,-5.8006,-5.8027,-5.8118,-5.8168,-5.8183,-5.8241,-5.8283,-5.8334,-5.8354,-5.8426,-5.8443,-5.8474,-5.8541,-5.8561,-5.8641,-5.865,-5.8747,-5.8743,-5.8731,-5.873,-5.8786,-5.878,-5.8965,-5.899,-5.8841,-5.8843,-5.8844,0,-5.808,-5.8137,-5.8193,-5.8231,-5.8259,-5.832,-5.8359,-5.8374,-5.8415,-5.8475,-5.8519,-5.8585,-5.8638,-5.8746,-5.8776,-5.8838,-5.8834,-5.8896,-5.8843,-5.8839,-5.8833,-5.8829,-5.8834,-5.8904,-5.8906,-5.8907,-5.8908,0,-5.8211,-5.822,-5.8276,-5.8337,-5.8384,-5.8433,-5.8479,-5.8511,-5.8533,-5.858,-5.8648,-5.869,-5.8773,-5.8839,-5.8903,-5.8931,-5.8923,-5.8925,-5.8941,-5.8937,-5.8927,-5.8932,-5.8755,-5.892,-5.8918,-5.8918,-5.8917,-5.8916,-5.8301,-5.8351,-5.8399,-5.8462,-5.85,-5.8545,-5.8595,-5.8622,-5.8679,-5.8748,-5.8754,-5.8828,-5.8877,-5.8962,-5.8994,-5.9052,-5.9034,-5.9058,-5.9064,-5.9069,-5.9073,-5.892,-5.9064,-5.9064,-5.9064,-5.9064,-5.9063,0,-5.843,-5.8461,-5.852,-5.8586,-5.8637,-5.8627,-5.8679,-5.8722,-5.8787,-5.8834,-5.8887,-5.8967,-5.9032,-5.9069,-5.9134,-5.9174,-5.9172,-5.919,-5.9186,-5.9193,-5.9086,-5.9064,-5.9191,-5.9191,-5.9191,-5.919,-5.919,-5.919,-5.8502,-5.8586,-5.8601,-5.8704,-5.8735,-5.8807,-5.8838,-5.888,-5.8917,-5.9006,-5.906,-5.9084,-5.9127,-5.9196,-5.9255,-5.9264,-5.9288,-5.9308,-5.9315,-5.9213,-5.92,-5.9187,-5.9167,-5.9313,-5.9313,-5.9416,-5.9417,-5.9418]},{"header":{"parameterUnit":"m.s-1","parameterCategory":1,"la1":30.2991,"la2":30.254,"lo1":-89.0895,"lo2":-89.0444,"dy":0.0017,"dx":0.0017,"nx":28,"ny":28,"refTime":"2024-12-25T09:00:00:Z","depth":0,"parameterNumber":3,"parameterNumberName":"V-component_of_WINDS"},"data":[0,0,0,0,0,0,0,0,0,0,0,0,0,0,0,0,0,0,0,0,0,0,0,0,0,0,0,0,0,0,0,0,0,0,0,0,0,0,0,0,0,0,0,0,0,0,0,0,0,0,0,0,0,0,0,0,0,0,2.0519,2.0519,0,2.0518,2.0518,2.0518,2.0494,2.0493,2.0493,2.0492,2.049,2.0491,2.0491,0,0,0,0,0,0,0,0,0,0,0,0,0,2.0502,2.0502,2.0519,2.0519,2.0519,2.0518,2.0518,2.0518,2.0494,2.0493,2.0492,2.0492,2.049,2.0491,2.0491,0,0,0,0,0,0,0,0,0,0,0,0,0,2.0506,2.0503,2.0519,2.0507,2.0506,2.0518,2.0518,2.0518,2.0494,2.0493,2.0492,2.0491,2.049,2.0491,2.0491,2.0515,0,0,2.0494,2.0494,0,0,0,0,0,0,0,0,2.0506,2.0507,2.0509,2.0508,2.0506,2.0505,2.0511,2.0517,2.0494,2.0498,2.0492,2.0491,2.0496,2.0496,2.0498,2.0514,2.0514,2.0494,2.0494,2.0495,2.0495,0,0,0,0,0,0,0,2.0506,2.0507,2.0518,2.0509,2.0507,2.0502,2.0502,2.0512,2.0502,2.0498,2.0496,2.0497,2.0495,2.0497,2.0498,2.0514,2.0494,2.0494,2.0495,2.0495,2.0554,2.0555,0,0,0,0,0,0,2.0507,2.0506,2.0518,2.0518,2.0504,2.0503,2.0503,2.0506,2.0502,2.0501,2.0497,2.0495,2.0496,2.0497,2.0497,2.0527,2.0495,2.0495,2.0496,2.0553,2.0554,2.0556,0,0,0,0,0,0,2.0507,2.0508,2.0518,2.0512,2.0513,2.0504,2.0509,2.0507,2.0509,2.0502,2.05,2.0501,2.0496,2.0496,2.0511,2.0526,2.0496,2.0496,2.0552,2.0553,2.0555,2.0585,0,0,0,0,0,0,2.0506,2.0508,2.0516,2.0512,2.0513,2.0532,2.051,2.0507,2.051,2.0508,2.0505,2.0503,2.0495,2.051,2.0512,2.0527,2.0497,2.055,2.0553,2.0554,2.0582,2.0587,2.0591,0,0,0,0,0,2.0506,2.0523,2.0517,2.0518,2.0523,2.0533,2.0533,2.0523,2.0512,2.052,2.0516,2.0503,2.0525,2.0512,2.0514,2.0529,2.0549,2.0552,2.0554,2.058,2.0586,2.0591,0,0,0,0,0,0,2.0528,2.0522,2.0515,2.0532,2.0533,2.0529,2.0539,2.0529,2.0534,2.0531,2.0519,2.0518,2.0536,2.0534,2.052,2.0554,2.0535,2.0538,2.0554,2.056,2.0564,2.0564,2.0498,0,0,0,0,0,2.0535,2.0543,2.0538,2.0553,2.0554,2.0547,2.055,2.0543,2.0544,2.0544,2.0541,2.0542,2.055,2.0554,2.056,2.0582,2.0582,2.0594,2.0598,2.0602,2.0605,2.062,2.0625,2.0564,2.0564,2.0564,0,0,2.0549,2.0547,2.0552,2.0558,2.0558,2.0568,2.0547,2.0557,2.0565,2.0545,2.056,2.0559,2.0559,2.0579,2.0587,2.0578,2.0622,2.0605,2.0608,2.0609,2.0623,2.0629,2.0634,2.0565,2.0565,2.0565,0,0,2.058,2.0578,2.0593,2.0594,2.0595,2.0591,2.0595,2.0593,2.0591,2.0606,2.0593,2.0602,2.0614,2.0616,2.0618,2.0655,2.0645,2.0657,2.0681,2.0695,2.07,2.0705,2.072,2.0725,2.066,2.066,2.066,0,2.0597,2.0611,2.0601,2.0614,2.0617,2.0602,2.0618,2.062,2.0622,2.0626,2.0615,2.0633,2.0632,2.0653,2.0663,2.0665,2.067,2.0658,2.07,2.0705,2.0708,2.0723,2.0729,2.0662,2.0662,2.0662,2.0661,0,2.0633,2.0643,2.0655,2.066,2.0665,2.0679,2.0673,2.068,2.0673,2.067,2.0688,2.0687,2.0694,2.0698,2.0691,2.072,2.0715,2.0702,2.0684,2.0716,2.073,2.0735,2.0664,2.0664,2.0663,2.0663,0,0,2.0675,2.0678,2.0683,2.0687,2.0689,2.0697,2.0711,2.072,2.0727,2.073,2.0743,2.0756,2.0746,2.0749,2.0742,2.0755,2.0788,2.0742,2.0742,2.0752,2.0823,2.0833,2.084,2.0781,2.0782,2.0783,2.0824,0,2.0707,2.0732,2.0726,2.0751,2.0762,2.075,2.0763,2.0767,2.0765,2.0775,2.0773,2.0783,2.0768,2.0771,2.0783,2.0781,2.0802,2.0778,2.0794,2.0795,2.0796,2.0846,2.0856,2.0895,2.0829,2.083,2.083,0,2.0746,2.0754,2.0781,2.0785,2.079,2.0801,2.0811,2.082,2.0825,2.0823,2.0829,2.0821,2.0837,2.0818,2.0842,2.0825,2.0832,2.0833,2.0834,2.0836,2.0815,2.0851,2.0907,2.0914,2.0838,2.0838,2.0837,0,2.0778,2.0794,2.0814,2.0817,2.0821,2.0831,2.0833,2.0837,2.0844,2.0852,2.0857,2.0866,2.0872,2.088,2.0876,2.0862,2.0901,2.0881,2.0901,2.0902,2.091,2.091,2.0969,2.0912,2.0912,2.0912,2.0912,0,2.0814,2.0832,2.0828,2.084,2.086,2.0854,2.0875,2.0875,2.088,2.0893,2.0882,2.0895,2.0888,2.09,2.0896,2.0918,2.092,2.092,2.092,2.0922,2.0923,2.0927,2.0925,2.0914,2.0913,2.0913,2.0913,0,2.0852,2.085,2.0871,2.0875,2.0876,2.0892,2.0895,2.0907,2.0907,2.0924,2.0927,2.0926,2.094,2.0937,2.0952,2.095,2.0978,2.0973,2.0977,2.0976,2.0998,2.0996,2.1063,2.1073,2.1008,2.1008,2.1009,0,2.0876,2.0889,2.0896,2.0905,2.0909,2.0922,2.093,2.0925,2.0934,2.0943,2.0955,2.0969,2.098,2.1004,2.1004,2.1017,2.1013,2.1036,2.1015,2.1018,2.1016,2.1016,2.1019,2.104,2.1041,2.1041,2.1042,0,2.0919,2.0919,2.093,2.0944,2.0954,2.0963,2.0971,2.0979,2.0976,2.0986,2.1002,2.1011,2.1028,2.1043,2.1056,2.1059,2.1051,2.1049,2.1054,2.1058,2.1061,2.1062,2.099,2.1047,2.1046,2.1046,2.1046,2.1046,2.0952,2.0965,2.0973,2.0988,2.0995,2.1004,2.1017,2.1019,2.1032,2.1047,2.1043,2.1062,2.107,2.1086,2.1091,2.1107,2.1098,2.1106,2.1108,2.111,2.1114,2.1058,2.1108,2.1108,2.1108,2.1108,2.1108,0,2.0997,2.1003,2.1016,2.103,2.1043,2.1035,2.1045,2.1056,2.1073,2.1082,2.1094,2.1114,2.1129,2.1133,2.1148,2.116,2.1157,2.1164,2.1164,2.1165,2.112,2.1114,2.1166,2.1166,2.1166,2.1166,2.1166,2.1166,2.1022,2.1045,2.1046,2.1073,2.1079,2.1098,2.1105,2.1114,2.1122,2.1145,2.1158,2.1161,2.1169,2.1185,2.12,2.12,2.1207,2.1217,2.1216,2.1174,2.1168,2.1162,2.1157,2.1218,2.1218,2.1261,2.1261,2.1261]}]]